Skip Page Navigation
NASA JPL Caltech
NASA Logo - Jet Propulsion Laboratory + View the NASA Portal
+ Near-Earth Object (NEO) Program
Search JPL
JPL Home Earth Solar System Stars & Galaxies Technology
JPL Solar System Dynamics
BODIES ORBITS EPHEMERIDES TOOLS PHYSICAL DATA DISCOVERY FAQ SITE MAP
JPL Small-Body Database Browser
Search: [ help ]  
33477 (1999 FR59)
Classification: Main-belt Asteroid          SPK-ID: 2033477
Ephemeris | Orbit Diagram | Orbital Elements | Physical Parameters | Discovery Circumstances | Close-Approach Data ]

[ show orbit diagram ]
Orbital Elements at Epoch 2457600.5 (2016-Jul-31.0) TDB
Reference: JPL 15 (heliocentric ecliptic J2000)
 Element Value Uncertainty (1-sigma)   Units 
e .08657784611270139 4.7679e-08  
a 2.3275218703434 1.6309e-08 au
q 2.126010040028862 1.0963e-07 au
i 6.615044852006475 6.9594e-06 deg
node 177.6636222315905 4.3751e-05 deg
peri 82.69937781797235 6.0551e-05 deg
M 251.8537181612656 3.9999e-05 deg
tp 2457990.126219361475
(2017-Aug-24.62621936)
0.0001443 JED
period 1296.997331626176
3.55
1.3632e-05
3.732e-08
d
yr
n .2775641793716197 2.9173e-09 deg/d
Q 2.529033700657937 1.7721e-08 au
  Orbit Determination Parameters
   # obs. used (total)      772  
   data-arc span      8703 days (23.83 yr)  
   first obs. used      1992-04-05  
   last obs. used      2016-02-02  
   planetary ephem.      DE431  
   SB-pert. ephem.      SB431-BIG16  
   condition code      0  
   fit RMS      .57282  
   data source      ORB  
   producer      Otto Matic  
   solution date      2016-Feb-25 21:38:48  

Additional Information
 Earth MOID = 1.12315 au 
 Jupiter MOID = 2.5114 au 
 T_jup = 3.559 
[ show covariance matrix ]

Ephemeris | Orbit Diagram | Orbital Elements | Physical Parameters | Discovery Circumstances | Close-Approach Data ]

Physical Parameter Table
Parameter Symbol Value Units Sigma Reference Notes
absolute magnitude H 15.1 mag n/a MPO309413  

33477 (1999 FR59)          Discovered 1999-Mar-27 by Beijing Schmidt CCD Asteroid Program at Xinglong
Reference: 20020128/Numbers.arcLast Updated: 2004-04-19

[ show close-approach data ]
Alternate Designations
 1999 FR59 = 1992 GE6 = 2000 PT9 
Ephemeris | Orbit Diagram | Orbital Elements | Physical Parameters | Discovery Circumstances | Close-Approach Data ]
ABOUT SSD CREDITS/AWARDS PRIVACY/COPYRIGHT GLOSSARY LINKS
FirstGov 2016-May-05 01:00 UT
(server date/time)  
NASA Home Page
Site Manager:   Ryan S. Park
Webmaster  Alan B. Chamberlin